Flag for United Kingdom Weather past 2 weeks in Gloucester, England, United Kingdom

Now
79 °F

Sunny.


Feels Like: 79 °F
Forecast: 54 / 71 °F
Wind: 10 mph from Southeast

Location: Staverton Private

Current Time: Jul 3, 2015 at 7:01:25 PM

Latest Report: Jul 3, 2015 at 6:20 PM


Visibility: 10 mi

Pressure: 30.09 "Hg

Humidity: 39%

Dew point: 52 °F

Location of GloucesterLocation

Historic Weather in Gloucester — Graph

°F

Gloucester temperature yesterday

Maximum temperature yesterday: 70 °F (at 2:20 PM)
Minimum temperature yesterday: 59 °F (at 3:50 PM)
Average temperature yesterday: 65 °F

Past Weeks' High & Low Weather Summary

 TemperatureHumidityPressure
High91 °F (Jul 1, 5:50 PM)94% (Jun 20, 3:50 PM)30.30 "Hg (Jun 20, 3:50 PM)
Low54 °F (Jun 23, 6:50 AM)32% (Jun 30, 12:50 PM)29.80 "Hg (Jul 1, 6:50 AM)
Average68 °F63%30.06 "Hg
* Reported Jun 18 5:20 PM — Jul 3 5:50 PM, Gloucester, Weather by CustomWeather, © 2015

Note: Actual official high and low records may vary slightly from our data, if they occured in-between our weather recording intervals... More about our weather records

Advertising

Gloucester weather history for previous 24 hours

 ConditionsComfort  
Time TempWeatherWind HumidityBarometerVisibility
5:50 PM
Fri, Jul 3
79 °FPassing clouds.12 mph37%30.09 "HgN/A
5:20 PM79 °FPassing clouds.12 mph37%30.12 "HgN/A
4:50 PM77 °FPassing clouds.8 mph39%30.12 "HgN/A
4:20 PM79 °FSunny.12 mph37%30.12 "Hg10 mi
3:50 PM77 °FPassing clouds.10 mph39%30.15 "HgN/A
3:20 PM77 °FPassing clouds.10 mph39%30.15 "HgN/A
2:50 PM77 °FPassing clouds.9 mph39%30.18 "HgN/A
2:20 PM77 °FPassing clouds.7 mph39%30.18 "HgN/A
1:50 PM77 °FPassing clouds.8 mph42%30.21 "HgN/A
1:20 PM75 °FPassing clouds.8 mph44%30.21 "HgN/A
12:50 PM75 °FPassing clouds.6 mph44%30.21 "HgN/A
12:20 PM73 °FPassing clouds.7 mph50%30.24 "HgN/A
11:50 AM73 °FPassing clouds.5 mph50%30.24 "HgN/A
11:20 AM72 °FPassing clouds.5 mph61%30.27 "HgN/A
10:50 AM72 °FPassing clouds.2 mph57%30.27 "HgN/A
10:20 AM70 °FPassing clouds.5 mph64%30.27 "HgN/A
9:50 AM68 °FPassing clouds.6 mph64%30.27 "HgN/A
9:20 AM68 °FPassing clouds.No wind64%30.30 "HgN/A
8:50 AM64 °FPassing clouds.2 mph83%30.30 "HgN/A
8:20 AM61 °FPassing clouds.No wind88%30.30 "HgN/A
7:50 AM59 °FSunny.No wind88%30.30 "Hg10 mi
7:20 PM
Thu, Jul 2
64 °FPassing clouds.No wind78%30.18 "HgN/A
Weather by CustomWeather, © 2015

See weather overviewHow to use our weather pages